Rochester/St. Mary\'s Hospita, MN

2:15 PM CDT on June 22, 2018 (GMT -0500)
Rochester/St. Mary\'s Hospita

Weather History for K9MN - October, 2017

Change the Weather History Date:

Wednesday, October 4, 2017

  Actual Average (KRST) Record (KRST)
Temperature  
Mean Temperature 54 °F -  
Max Temperature 61 °F 63 °F 84 °F (2005)
Min Temperature 47 °F 40 °F 20 °F (1935)
Degree Days  
Heating Degree Days 11    
Growing Degree Days 4 (Base 50)    
Moisture  
Dew Point 41 °F    
Average Humidity 66    
Maximum Humidity 90    
Minimum Humidity 40    
Precipitation  
Precipitation 0.00 in - - ()
Sea Level Pressure  
Sea Level Pressure 30.33 in    
Wind  
Wind Speed 8 mph (West)    
Max Wind Speed 16 mph    
Max Gust Speed 23 mph    
Visibility 10 miles    
Events      
Averages and records for this station are not official NWS values.
T = Trace of Precipitation, MM = Missing Value Source: NWS Daily Summary

Daily Weather History Graph

Daily Weather History Graph

Search for Another Location

Airport or City:

Astronomy

Oct. 04, 2017 Rise Set
Actual Time 7:11 AM CDT 6:44 PM CDT
Civil Twilight 6:42 AM CDT 7:13 PM CDT
Nautical Twilight 6:09 AM CDT 7:46 PM CDT
Astronomical Twilight 5:35 AM CDT 8:20 PM CDT
Moon 6:35 PM CDT (10/4) 5:41 AM CDT (10/4)
Length of Visible Light 12h 30m
Length of Day
11h 33m
Waxing Gibbous, 99% of the Moon is Illuminated
Oct 4
Waxing Gibbous
Oct 5
Full
Oct 12
Last Quarter
Oct 19
New
Oct 27
First Quarter

Hourly Weather History & Observations

Time (CDT) Temp. Dew Point Humidity Pressure Visibility Wind Dir Wind Speed Gust Speed Precip Events Conditions
12:11 AM 53.6 °F 50.7 °F 90% 30.31 in 10.0 mi West 9.2 mph - N/A   Clear
12:32 AM 52.9 °F 50.0 °F 90% 30.32 in 10.0 mi West 8.1 mph - N/A   Clear
12:52 AM 52.7 °F 49.3 °F 88% 30.32 in 10.0 mi WNW 10.4 mph - N/A   Clear
1:11 AM 52.3 °F 49.3 °F 89% 30.32 in 10.0 mi WNW 8.1 mph - N/A   Clear
1:32 AM 52.0 °F 49.1 °F 90% 30.33 in 10.0 mi West 5.8 mph - N/A   Clear
1:52 AM 51.8 °F 48.4 °F 88% 30.33 in 10.0 mi West 5.8 mph - N/A   Clear
2:11 AM 51.4 °F 47.8 °F 87% 30.34 in 10.0 mi West 5.8 mph - N/A   Clear
2:32 AM 51.4 °F 47.1 °F 85% 30.34 in 10.0 mi West 6.9 mph - N/A   Clear
2:52 AM 50.9 °F 46.6 °F 85% 30.34 in 10.0 mi West 8.1 mph - N/A   Clear
3:12 AM 50.4 °F 46.4 °F 86% 30.34 in 10.0 mi West 6.9 mph - N/A   Clear
3:32 AM 50.0 °F 46.6 °F 88% 30.34 in 10.0 mi West 4.6 mph - N/A   Mostly Cloudy
3:52 AM 50.0 °F 46.4 °F 87% 30.34 in 10.0 mi West 3.5 mph - N/A   Mostly Cloudy
4:12 AM 50.4 °F 45.9 °F 85% 30.34 in 10.0 mi West 3.5 mph - N/A   Scattered Clouds
4:32 AM 50.4 °F 45.5 °F 83% 30.35 in 10.0 mi West 4.6 mph - N/A   Clear
4:52 AM 50.2 °F 45.0 °F 82% 30.35 in 10.0 mi WSW 3.5 mph - N/A   Clear
5:12 AM 49.3 °F 44.6 °F 84% 30.36 in 10.0 mi West 5.8 mph - N/A   Clear
5:32 AM 49.3 °F 44.2 °F 83% 30.37 in 10.0 mi West 6.9 mph - N/A   Clear
5:52 AM 49.5 °F 43.7 °F 81% 30.37 in 10.0 mi West 6.9 mph - N/A   Clear
6:12 AM 48.9 °F 43.9 °F 83% 30.37 in 10.0 mi West 5.8 mph - N/A   Clear
6:32 AM 48.4 °F 43.7 °F 84% 30.37 in 10.0 mi West 8.1 mph - N/A   Clear
6:52 AM 48.2 °F 43.2 °F 83% 30.37 in 10.0 mi West 8.1 mph - N/A   Clear
7:12 AM 47.7 °F 43.0 °F 84% 30.38 in 10.0 mi West 6.9 mph - N/A   Clear
7:32 AM 47.7 °F 43.0 °F 84% 30.38 in 10.0 mi West 9.2 mph - N/A   Clear
7:52 AM 48.2 °F 42.4 °F 80% 30.39 in 10.0 mi West 6.9 mph - N/A   Clear
8:12 AM 48.6 °F 41.9 °F 78% 30.40 in 10.0 mi West 6.9 mph - N/A   Clear
8:32 AM 49.3 °F 40.8 °F 73% 30.39 in 10.0 mi West 10.4 mph - N/A   Clear
8:51 AM 50.0 °F 40.1 °F 69% 30.39 in 10.0 mi West 13.8 mph 19.6 mph N/A   Clear
9:12 AM 49.5 °F 39.0 °F 67% 30.40 in 10.0 mi West 13.8 mph 20.7 mph N/A   Clear
9:32 AM 50.2 °F 39.4 °F 66% 30.39 in 10.0 mi West 16.1 mph - N/A   Clear
9:51 AM 50.4 °F 39.2 °F 66% 30.39 in 10.0 mi WNW 15.0 mph 19.6 mph N/A   Clear
10:12 AM 50.4 °F 39.0 °F 65% 30.38 in 10.0 mi WNW 12.7 mph 23.0 mph N/A   Clear
10:32 AM 51.6 °F 39.9 °F 64% 30.37 in 10.0 mi WNW 10.4 mph 19.6 mph N/A   Clear
10:51 AM 52.0 °F 39.2 °F 62% 30.38 in 10.0 mi WNW 11.5 mph 17.3 mph N/A   Clear
11:12 AM 53.1 °F 38.7 °F 58% 30.37 in 10.0 mi WNW 10.4 mph - N/A   Clear
11:32 AM 53.8 °F 39.6 °F 59% 30.37 in 10.0 mi West 10.4 mph - N/A   Clear
11:51 AM 55.0 °F 39.7 °F 56% 30.37 in 10.0 mi West 8.1 mph - N/A   Clear
12:12 PM 56.3 °F 38.8 °F 52% 30.37 in 10.0 mi West 8.1 mph - N/A   Clear
12:32 PM 57.2 °F 37.6 °F 48% 30.36 in 10.0 mi WNW 12.7 mph 16.1 mph N/A   Clear
12:51 PM 57.4 °F 36.5 °F 46% 30.36 in 10.0 mi WNW 15.0 mph 19.6 mph N/A   Clear
1:12 PM 58.1 °F 36.9 °F 45% 30.36 in 10.0 mi West 10.4 mph 20.7 mph N/A   Clear
1:32 PM 58.1 °F 35.4 °F 43% 30.35 in 10.0 mi WNW 13.8 mph 23.0 mph N/A   Clear
1:51 PM 59.2 °F 37.2 °F 44% 30.34 in 10.0 mi West 12.7 mph 19.6 mph N/A   Clear
2:12 PM 59.2 °F 36.9 °F 43% 30.34 in 10.0 mi West 9.2 mph 21.9 mph N/A   Clear
3:12 PM 59.9 °F 36.9 °F 42% 30.32 in 10.0 mi West 10.4 mph 23.0 mph N/A   Clear
3:32 PM 61.2 °F 37.0 °F 41% 30.31 in 10.0 mi WNW 10.4 mph 18.4 mph N/A   Clear
3:51 PM 61.0 °F 37.2 °F 41% 30.31 in 10.0 mi West 11.5 mph 18.4 mph N/A   Clear
4:12 PM 60.6 °F 36.3 °F 40% 30.30 in 10.0 mi WNW 16.1 mph - N/A   Clear
4:32 PM 61.3 °F 36.9 °F 40% 30.29 in 7.0 mi West 15.0 mph 19.6 mph N/A   Clear
4:52 PM 61.0 °F 36.5 °F 40% 30.29 in 10.0 mi West 13.8 mph 20.7 mph N/A   Clear
5:12 PM 60.8 °F 36.7 °F 41% 30.29 in 10.0 mi West 11.5 mph 16.1 mph N/A   Clear
5:32 PM 60.6 °F 37.6 °F 42% 30.28 in 10.0 mi West 11.5 mph 17.3 mph N/A   Clear
5:52 PM 60.1 °F 37.4 °F 43% 30.28 in 10.0 mi West 8.1 mph - N/A   Clear
6:12 PM 59.9 °F 37.8 °F 44% 30.28 in 10.0 mi WNW 10.4 mph - N/A   Clear
6:32 PM 58.8 °F 38.3 °F 47% 30.27 in 10.0 mi WNW 4.6 mph - N/A   Clear
6:52 PM 57.4 °F 38.7 °F 50% 30.27 in 10.0 mi West 5.8 mph - N/A   Clear
7:12 PM 56.5 °F 39.2 °F 52% 30.27 in 10.0 mi West 4.6 mph - N/A   Clear
7:32 PM 55.9 °F 39.0 °F 53% 30.27 in 10.0 mi West 5.8 mph - N/A   Clear
7:52 PM 55.9 °F 38.8 °F 53% 30.27 in 10.0 mi WSW 6.9 mph - N/A   Clear
8:12 PM 54.9 °F 38.8 °F 55% 30.27 in 10.0 mi West 3.5 mph - N/A   Clear
8:32 PM 54.5 °F 39.0 °F 56% 30.27 in 10.0 mi West 3.5 mph - N/A   Clear
8:52 PM 53.6 °F 39.0 °F 58% 30.26 in 10.0 mi Calm Calm - N/A   Clear
9:12 PM 53.8 °F 39.7 °F 59% 30.26 in 10.0 mi Calm Calm - N/A   Clear
9:32 PM 52.9 °F 39.6 °F 61% 30.26 in 10.0 mi Calm Calm - N/A   Clear
9:52 PM 52.7 °F 39.9 °F 62% 30.27 in 10.0 mi Calm Calm - N/A   Clear
10:12 PM 51.4 °F 40.8 °F 67% 30.26 in 10.0 mi Calm Calm - N/A   Clear
10:32 PM 50.7 °F 41.2 °F 70% 30.26 in 10.0 mi Calm Calm - N/A   Clear
10:52 PM 50.0 °F 41.0 °F 71% 30.26 in 10.0 mi Calm Calm - N/A   Clear
11:12 PM 49.8 °F 41.5 °F 73% 30.26 in 10.0 mi Calm Calm - N/A   Clear
11:31 PM 48.7 °F 41.2 °F 75% 30.26 in 10.0 mi Calm Calm - N/A   Clear
11:52 PM 48.9 °F 42.1 °F 77% 30.26 in 10.0 mi Calm Calm - N/A   Clear